| time (UTC) | temp F | wind direction | speed MPH | gust MPH | rain 1hr in | rain 24hr in | rain mn in | humidity % | barometer mb |
| 20260506090016 | 44 | 0.0 | 1.0 | 0.03 | 1.10 | 0.13 | 93 | 1005.8 | |
| 20260506083016 | 44 | 0.0 | 3.0 | 0.02 | 1.09 | 0.12 | 93 | 1005.8 | |
| 20260506073016 | 44 | 0.0 | 2.0 | 0.01 | 1.07 | 0.10 | 93 | 1005.8 | |
| 20260506043016 | 45 | 0.0 | 3.0 | 0.03 | 0.99 | 0.02 | 93 | 1006.9 | |
| 20260506040016 | 46 | 0.0 | 4.0 | 0.06 | 0.97 | 0.97 | 93 | 1007.2 | |
| 20260506033016 | 47 | 0.0 | 3.0 | 0.11 | 0.96 | 0.96 | 93 | 1007.4 | |
| 20260506030036 | 47 | 0.0 | 1.0 | 0.13 | 0.91 | 0.91 | 93 | 1007.3 | |
| 20260506023016 | 47 | 0.0 | 2.0 | 0.11 | 0.85 | 0.85 | 93 | 1006.8 | |
| 20260506020016 | 48 | 0.0 | 1.0 | 0.06 | 0.78 | 0.78 | 92 | 1006.6 | |
| 20260506013017 | 48 | 0.0 | 1.0 | 0.07 | 0.74 | 0.74 | 92 | 1006.4 | |
| 20260506010037 | 48 | 0.0 | 1.0 | 0.06 | 0.72 | 0.72 | 92 | 1006.3 | |
| 20260506003017 | 47 | 0.0 | 2.0 | 0.02 | 0.67 | 0.67 | 92 | 1005.9 | |
| 20260506000016 | 47 | 0.0 | 1.0 | 0.10 | 0.66 | 0.66 | 92 | 1005.8 | |
| 20260505233036 | 47 | 0.0 | 3.0 | 0.12 | 0.65 | 0.65 | 92 | 1006.4 | |
| 20260505230016 | 47 | 135 | 1.0 | 4.0 | 0.11 | 0.56 | 0.56 | 92 | 1006.2 |
| 20260505223016 | 47 | 0.0 | 4.0 | 0.16 | 0.53 | 0.53 | 92 | 1006.1 | |
| 20260505220017 | 48 | 180 | 1.0 | 5.0 | 0.25 | 0.45 | 0.45 | 92 | 1006.0 |
| 20260505213037 | 49 | 113 | 2.0 | 8.0 | 0.25 | 0.37 | 0.37 | 92 | 1006.2 |
| 20260505210016 | 53 | 0.0 | 4.0 | 0.13 | 0.20 | 0.20 | 92 | 1005.9 | |
| 20260505203016 | 54 | 0.0 | 2.0 | 0.10 | 0.12 | 0.12 | 92 | 1006.1 | |
| 20260505200016 | 54 | 90 | 1.0 | 5.0 | 0.07 | 0.07 | 0.07 | 91 | 1005.7 |
| 20260505193016 | 56 | 90 | 1.0 | 4.0 | 0.02 | 0.02 | 0.02 | 88 | 1006.0 |
| 20260505190016 | 58 | 113 | 2.0 | 8.0 | 0.00 | 0.00 | 0.00 | 84 | 1006.1 |
| 20260505183016 | 62 | 113 | 1.0 | 8.0 | 0.00 | 0.00 | 0.00 | 76 | 1006.2 |
| 20260505180016 | 61 | 90 | 2.0 | 9.0 | 0.00 | 0.00 | 0.00 | 76 | 1005.9 |
| 20260505173017 | 61 | 90 | 2.0 | 5.0 | 0.00 | 0.00 | 0.00 | 76 | 1005.9 |
| 20260505170016 | 61 | 90 | 3.0 | 10.0 | 0.00 | 0.00 | 0.00 | 75 | 1005.7 |
| 20260505163016 | 65 | 90 | 4.0 | 15.0 | 0.00 | 0.00 | 0.00 | 65 | 1005.7 |
| 20260505153016 | 69 | 45 | 2.0 | 13.0 | 0.00 | 0.00 | 0.00 | 63 | 1004.7 |
| 20260505123036 | 60 | 45 | 2.0 | 6.0 | 0.00 | 0.00 | 0.00 | 76 | 1004.2 |
| 20260505120016 | 61 | 45 | 2.0 | 9.0 | 0.00 | 0.00 | 0.00 | 74 | 1003.6 |
| 20260505113016 | 62 | 45 | 2.0 | 7.0 | 0.00 | 0.00 | 0.00 | 69 | 1003.5 |
| 20260505100016 | 63 | 45 | 3.0 | 11.0 | 0.00 | 0.00 | 0.00 | 67 | 1002.8 |
| 20260505093016 | 64 | 45 | 3.0 | 10.0 | 0.00 | 0.00 | 0.00 | 66 | 1002.2 |